| time (UTC) | temp C | wind direction | speed KPH | gust KPH | rain 1hr cm | rain 24hr cm | rain mn cm | humidity % | barometer mb |
| 20260901135829 | 27 | 99 | 6.4 | 11.3 | 0.00 | 0.03 | 0.00 | 35 | 1016.2 |
| 20260901135329 | 27 | 151 | 1.6 | 9.7 | 0.00 | 0.03 | 0.00 | 35 | 1016.2 |
| 20260901134828 | 27 | 25 | 3.2 | 16.1 | 0.00 | 0.03 | 0.00 | 35 | 1016.2 |
| 20260901134328 | 27 | 49 | 0.0 | 12.9 | 0.00 | 0.15 | 0.00 | 37 | 1016.1 |
| 20260901133828 | 26 | 21 | 0.0 | 9.7 | 0.00 | 0.15 | 0.00 | 38 | 1016.1 |
| 20260901133327 | 26 | 8 | 3.2 | 11.3 | 0.00 | 0.15 | 0.00 | 40 | 1016.2 |
| 20260901132827 | 25 | 354 | 8.0 | 11.3 | 0.00 | 0.15 | 0.00 | 41 | 1016.3 |
| 20260901132327 | 25 | 12 | 1.6 | 16.1 | 0.00 | 0.15 | 0.00 | 41 | 1016.3 |
| 20260901131827 | 25 | 105 | 1.6 | 6.4 | 0.00 | 0.15 | 0.00 | 43 | 1016.3 |
| 20260901131326 | 25 | 22 | 0.0 | 6.4 | 0.00 | 0.15 | 0.00 | 45 | 1016.3 |
| 20260901130826 | 25 | 327 | 0.0 | 11.3 | 0.00 | 0.15 | 0.00 | 44 | 1016.3 |
| 20260901130326 | 25 | 118 | 4.8 | 8.0 | 0.00 | 0.15 | 0.00 | 43 | 1016.4 |
| 20260901125825 | 25 | 68 | 0.0 | 8.0 | 0.00 | 0.15 | 0.00 | 44 | 1016.4 |
| 20260901125325 | 24 | 73 | 0.0 | 3.2 | 0.00 | 0.15 | 0.00 | 47 | 1016.5 |
| 20260901124825 | 24 | 90 | 0.0 | 3.2 | 0.00 | 0.15 | 0.00 | 48 | 1016.5 |
| 20260901124325 | 24 | 40 | 1.6 | 9.7 | 0.00 | 0.15 | 0.00 | 47 | 1016.5 |
| 20260901123824 | 24 | 106 | 0.0 | 12.9 | 0.00 | 0.15 | 0.00 | 47 | 1016.6 |
| 20260901123324 | 24 | 101 | 3.2 | 12.9 | 0.00 | 0.15 | 0.00 | 47 | 1016.6 |
| 20260901122824 | 24 | 97 | 3.2 | 8.0 | 0.00 | 0.15 | 0.00 | 47 | 1016.6 |
| 20260901122323 | 25 | 127 | 6.4 | 6.4 | 0.00 | 0.15 | 0.00 | 47 | 1016.6 |
| 20260901121823 | 25 | 315 | 3.2 | 6.4 | 0.00 | 0.15 | 0.00 | 47 | 1016.7 |
| 20260901121323 | 25 | 313 | 0.0 | 3.2 | 0.00 | 0.15 | 0.00 | 47 | 1016.6 |
| 20260901120823 | 26 | 226 | 3.2 | 11.3 | 0.00 | 0.15 | 0.00 | 46 | 1016.7 |
| 20260901120322 | 26 | 198 | 4.8 | 12.9 | 0.00 | 0.15 | 0.00 | 45 | 1016.7 |
| 20260901115822 | 26 | 309 | 4.8 | 9.7 | 0.00 | 0.15 | 0.00 | 44 | 1016.7 |
| 20260901115322 | 26 | 324 | 3.2 | 11.3 | 0.00 | 0.15 | 0.00 | 44 | 1016.7 |
| 20260901114821 | 26 | 306 | 1.6 | 9.7 | 0.00 | 0.15 | 0.00 | 44 | 1016.8 |
| 20260901114321 | 26 | 153 | 3.2 | 12.9 | 0.00 | 0.15 | 0.00 | 47 | 1016.8 |
| 20260901113821 | 26 | 92 | 8.0 | 14.5 | 0.00 | 0.15 | 0.00 | 45 | 1016.8 |
| 20260901113321 | 26 | 282 | 4.8 | 9.7 | 0.00 | 0.15 | 0.00 | 46 | 1016.8 |
| 20260901112820 | 26 | 300 | 1.6 | 8.0 | 0.00 | 0.15 | 0.00 | 47 | 1016.7 |
| 20260901112320 | 25 | 105 | 1.6 | 8.0 | 0.00 | 0.15 | 0.00 | 49 | 1016.8 |
| 20260901111820 | 25 | 95 | 6.4 | 12.9 | 0.00 | 0.15 | 0.00 | 50 | 1016.9 |
| 20260901111319 | 25 | 323 | 3.2 | 11.3 | 0.00 | 0.15 | 0.00 | 50 | 1016.9 |
| 20260901110819 | 25 | 78 | 3.2 | 9.7 | 0.00 | 0.15 | 0.00 | 50 | 1016.9 |
| 20260901110319 | 25 | 358 | 4.8 | 11.3 | 0.00 | 0.15 | 0.00 | 51 | 1016.9 |
| 20260901105819 | 24 | 340 | 8.0 | 16.1 | 0.00 | 0.15 | 0.00 | 52 | 1016.9 |
| 20260901105318 | 25 | 312 | 3.2 | 14.5 | 0.00 | 0.15 | 0.00 | 51 | 1017.0 |
| 20260901104818 | 25 | 355 | 4.8 | 8.0 | 0.00 | 0.15 | 0.00 | 52 | 1016.9 |
| 20260901104318 | 24 | 289 | 6.4 | 9.7 | 0.00 | 0.15 | 0.00 | 55 | 1017.0 |
| 20260901103818 | 23 | 285 | 0.0 | 9.7 | 0.00 | 0.15 | 0.00 | 56 | 1016.9 |
| 20260901103317 | 23 | 244 | 1.6 | 11.3 | 0.00 | 0.15 | 0.00 | 56 | 1016.9 |
| 20260901102817 | 23 | 347 | 1.6 | 12.9 | 0.00 | 0.15 | 0.00 | 57 | 1017.0 |
| 20260901102317 | 22 | 326 | 4.8 | 12.9 | 0.00 | 0.15 | 0.00 | 56 | 1017.2 |
| 20260901101816 | 22 | 49 | 1.6 | 12.9 | 0.00 | 0.15 | 0.00 | 59 | 1017.2 |
| 20260901101316 | 22 | 275 | 1.6 | 9.7 | 0.00 | 0.15 | 0.00 | 60 | 1017.2 |
| 20260901100816 | 22 | 133 | 0.0 | 9.7 | 0.00 | 0.15 | 0.00 | 62 | 1017.2 |
| 20260901100316 | 21 | 351 | 6.4 | 14.5 | 0.00 | 0.15 | 0.00 | 62 | 1017.3 |
| 20260901095815 | 21 | 322 | 8.0 | 14.5 | 0.00 | 0.15 | 0.00 | 63 | 1017.3 |
| 20260901095315 | 21 | 299 | 4.8 | 11.3 | 0.00 | 0.15 | 0.00 | 64 | 1017.2 |
| 20260901094815 | 21 | 14 | 1.6 | 9.7 | 0.00 | 0.15 | 0.00 | 64 | 1017.3 |
| 20260901094314 | 21 | 19 | 3.2 | 8.0 | 0.00 | 0.15 | 0.00 | 64 | 1017.3 |
| 20260901093815 | 21 | 22 | 6.4 | 11.3 | 0.00 | 0.15 | 0.00 | 64 | 1017.3 |
| 20260901093314 | 20 | 251 | 3.2 | 9.7 | 0.00 | 0.15 | 0.00 | 66 | 1017.3 |
| 20260901092814 | 20 | 329 | 1.6 | 11.3 | 0.00 | 0.15 | 0.00 | 66 | 1017.4 |
| 20260901092313 | 20 | 358 | 4.8 | 11.3 | 0.00 | 0.15 | 0.00 | 66 | 1017.4 |
| 20260901091813 | 20 | 101 | 3.2 | 12.9 | 0.00 | 0.15 | 0.00 | 67 | 1017.5 |
| 20260901091313 | 20 | 355 | 6.4 | 9.7 | 0.00 | 0.15 | 0.00 | 68 | 1017.4 |
| 20260901090812 | 20 | 220 | 1.6 | 6.4 | 0.00 | 0.15 | 0.00 | 69 | 1017.4 |
| 20260901090312 | 20 | 19 | 0.0 | 9.7 | 0.00 | 0.15 | 0.00 | 69 | 1017.4 |
| 20260901085812 | 20 | 271 | 3.2 | 9.7 | 0.00 | 0.15 | 0.00 | 71 | 1017.4 |
| 20260901085312 | 19 | 338 | 6.4 | 9.7 | 0.00 | 0.15 | 0.00 | 72 | 1017.4 |
| 20260901084811 | 19 | 303 | 1.6 | 9.7 | 0.00 | 0.15 | 0.00 | 71 | 1017.5 |
| 20260901084311 | 19 | 307 | 1.6 | 8.0 | 0.00 | 0.15 | 0.00 | 72 | 1017.5 |
| 20260901083811 | 19 | 333 | 4.8 | 11.3 | 0.00 | 0.15 | 0.00 | 73 | 1017.5 |
| 20260901083310 | 18 | 52 | 0.0 | 8.0 | 0.00 | 0.15 | 0.00 | 73 | 1017.4 |
| 20260901082810 | 18 | 345 | 6.4 | 6.4 | 0.00 | 0.15 | 0.00 | 73 | 1017.4 |
| 20260901082310 | 18 | 12 | 1.6 | 8.0 | 0.00 | 0.15 | 0.00 | 74 | 1017.5 |
| 20260901081810 | 18 | 35 | 0.0 | 11.3 | 0.00 | 0.15 | 0.00 | 75 | 1017.5 |
| 20260901081309 | 18 | 341 | 4.8 | 9.7 | 0.00 | 0.15 | 0.00 | 75 | 1017.4 |
| 20260901080809 | 18 | 15 | 1.6 | 11.3 | 0.00 | 0.15 | 0.00 | 76 | 1017.4 |
| 20260901080309 | 18 | 151 | 1.6 | 9.7 | 0.00 | 0.15 | 0.00 | 76 | 1017.4 |
| 20260901075808 | 18 | 347 | 4.8 | 8.0 | 0.00 | 0.15 | 0.00 | 75 | 1017.3 |
| 20260901075308 | 18 | 296 | 0.0 | 9.7 | 0.00 | 0.15 | 0.00 | 75 | 1017.3 |
| 20260901074808 | 18 | 315 | 4.8 | 8.0 | 0.00 | 0.15 | 0.00 | 76 | 1017.4 |
| 20260901074308 | 18 | 127 | 0.0 | 11.3 | 0.00 | 0.15 | 0.00 | 76 | 1017.3 |
| 20260901073807 | 17 | 21 | 3.2 | 6.4 | 0.00 | 0.15 | 0.00 | 77 | 1017.2 |
| 20260901073307 | 17 | 5 | 4.8 | 8.0 | 0.00 | 0.15 | 0.00 | 77 | 1017.2 |
| 20260901072807 | 17 | 299 | 3.2 | 8.0 | 0.00 | 0.15 | 0.00 | 77 | 1017.2 |
| 20260901072309 | 17 | 184 | 0.0 | 8.0 | 0.00 | 0.15 | 0.00 | 78 | 1017.1 |
| 20260901071806 | 17 | 329 | 3.2 | 11.3 | 0.00 | 0.15 | 0.00 | 77 | 1017.2 |
| 20260901071306 | 17 | 302 | 1.6 | 9.7 | 0.00 | 0.15 | 0.00 | 78 | 1017.1 |
| 20260901070806 | 17 | 285 | 1.6 | 8.0 | 0.00 | 0.15 | 0.00 | 79 | 1017.1 |
| 20260901070305 | 17 | 354 | 0.0 | 8.0 | 0.00 | 0.15 | 0.00 | 80 | 1017.1 |
| 20260901065805 | 17 | 30 | 0.0 | 6.4 | 0.00 | 0.15 | 0.00 | 80 | 1017.1 |
| 20260901065306 | 17 | 331 | 4.8 | 8.0 | 0.00 | 0.15 | 0.00 | 80 | 1017.2 |
| 20260901064804 | 17 | 23 | 3.2 | 8.0 | 0.00 | 0.15 | 0.00 | 81 | 1017.2 |
| 20260901064304 | 17 | 324 | 0.0 | 8.0 | 0.00 | 0.15 | 0.00 | 81 | 1017.0 |
| 20260901063804 | 16 | 320 | 4.8 | 6.4 | 0.00 | 0.15 | 0.00 | 82 | 1017.1 |
| 20260901063304 | 16 | 4 | 1.6 | 8.0 | 0.00 | 0.15 | 0.00 | 82 | 1017.0 |
| 20260901062803 | 16 | 347 | 4.8 | 4.8 | 0.00 | 0.15 | 0.00 | 82 | 1017.0 |
| 20260901062309 | 16 | 1 | 1.6 | 6.4 | 0.00 | 0.15 | 0.00 | 82 | 1017.0 |
| 20260901061803 | 16 | 357 | 0.0 | 6.4 | 0.00 | 0.15 | 0.00 | 82 | 1016.9 |
| 20260901061302 | 16 | 309 | 3.2 | 6.4 | 0.00 | 0.15 | 0.00 | 81 | 1016.9 |
| 20260901060802 | 16 | 23 | 0.0 | 8.0 | 0.00 | 0.15 | 0.00 | 81 | 1016.9 |
| 20260901060302 | 16 | 14 | 0.0 | 1.6 | 0.00 | 0.15 | 0.00 | 80 | 1016.8 |
| 20260901055802 | 16 | 358 | 0.0 | 4.8 | 0.00 | 0.15 | 0.00 | 80 | 1016.7 |
| 20260901055301 | 17 | 11 | 0.0 | 6.4 | 0.00 | 0.15 | 0.00 | 79 | 1016.8 |
| 20260901054801 | 17 | 11 | 0.0 | 4.8 | 0.00 | 0.15 | 0.00 | 78 | 1016.8 |
| 20260901054301 | 17 | 336 | 1.6 | 1.6 | 0.00 | 0.15 | 0.00 | 78 | 1016.7 |
| 20260901053800 | 17 | 212 | 0.0 | 0.0 | 0.00 | 0.15 | 0.00 | 78 | 1016.7 |
| 20260901053300 | 17 | 21 | 0.0 | 0.0 | 0.00 | 0.15 | 0.00 | 78 | 1016.6 |
| 20260901052800 | 17 | 21 | 0.0 | 0.0 | 0.00 | 0.15 | 0.00 | 79 | 1016.5 |
| 20260901052300 | 17 | 21 | 0.0 | 0.0 | 0.00 | 0.15 | 0.00 | 80 | 1016.5 |
| 20260901051759 | 17 | 21 | 0.0 | 0.0 | 0.00 | 0.15 | 0.00 | 81 | 1016.5 |
| 20260901051259 | 17 | 21 | 0.0 | 3.2 | 0.00 | 0.15 | 0.00 | 81 | 1016.5 |
| 20260901050759 | 17 | 355 | 0.0 | 1.6 | 0.00 | 0.15 | 0.00 | 82 | 1016.6 |
| 20260901050258 | 16 | 73 | 0.0 | 0.0 | 0.00 | 0.15 | 0.00 | 82 | 1016.6 |
| 20260901045758 | 16 | 73 | 0.0 | 0.0 | 0.00 | 0.15 | 0.00 | 82 | 1016.6 |
| 20260901045258 | 16 | 73 | 0.0 | 0.0 | 0.00 | 0.15 | 0.00 | 82 | 1016.6 |
| 20260901044758 | 16 | 73 | 0.0 | 0.0 | 0.00 | 0.15 | 0.00 | 82 | 1016.6 |
| 20260901044257 | 16 | 73 | 0.0 | 0.0 | 0.00 | 0.15 | 0.00 | 82 | 1016.5 |
| 20260901043757 | 16 | 73 | 0.0 | 0.0 | 0.00 | 0.15 | 0.00 | 82 | 1016.6 |
| 20260901043257 | 16 | 73 | 0.0 | 0.0 | 0.00 | 0.15 | 0.00 | 82 | 1016.5 |
| 20260901042757 | 16 | 73 | 0.0 | 0.0 | 0.00 | 0.15 | 0.00 | 82 | 1016.5 |
| 20260901042256 | 16 | 73 | 0.0 | 0.0 | 0.00 | 0.15 | 0.00 | 82 | 1016.4 |
| 20260901041756 | 16 | 66 | 0.0 | 1.6 | 0.00 | 0.15 | 0.00 | 81 | 1016.4 |
| 20260901041256 | 16 | 18 | 0.0 | 0.0 | 0.00 | 0.15 | 0.00 | 81 | 1016.4 |
| 20260901040755 | 16 | 18 | 0.0 | 0.0 | 0.00 | 0.15 | 0.00 | 81 | 1016.4 |
| 20260901040255 | 16 | 345 | 0.0 | 0.0 | 0.00 | 0.15 | 0.00 | 81 | 1016.4 |
| 20260901035755 | 16 | 345 | 0.0 | 0.0 | 0.00 | 0.15 | 0.00 | 81 | 1016.4 |
| 20260901035255 | 16 | 345 | 0.0 | 0.0 | 0.00 | 0.15 | 0.00 | 81 | 1016.4 |
| 20260901034754 | 16 | 345 | 0.0 | 0.0 | 0.00 | 0.15 | 0.00 | 81 | 1016.4 |
| 20260901034254 | 16 | 345 | 0.0 | 0.0 | 0.00 | 0.18 | 0.00 | 81 | 1016.4 |
| 20260901033754 | 17 | 345 | 0.0 | 0.0 | 0.00 | 0.18 | 0.00 | 81 | 1016.3 |
| 20260901033253 | 17 | 345 | 0.0 | 0.0 | 0.00 | 0.18 | 0.00 | 80 | 1016.2 |
| 20260901032753 | 17 | 345 | 0.0 | 0.0 | 0.00 | 0.18 | 0.00 | 80 | 1016.2 |
| 20260901032253 | 17 | 345 | 0.0 | 0.0 | 0.00 | 0.18 | 0.00 | 80 | 1016.2 |
| 20260901031753 | 17 | 345 | 0.0 | 1.6 | 0.00 | 0.18 | 0.00 | 80 | 1016.3 |
| 20260901031252 | 17 | 345 | 1.6 | 4.8 | 0.00 | 0.18 | 0.00 | 80 | 1016.2 |
| 20260901030752 | 17 | 324 | 0.0 | 4.8 | 0.00 | 0.18 | 0.00 | 80 | 1016.2 |
| 20260901030252 | 17 | 320 | 4.8 | 9.7 | 0.00 | 0.18 | 0.00 | 80 | 1016.2 |
| 20260901025751 | 17 | 329 | 8.0 | 8.0 | 0.00 | 0.18 | 0.00 | 80 | 1016.2 |
| 20260901025251 | 17 | 350 | 0.0 | 6.4 | 0.00 | 0.18 | 0.00 | 80 | 1016.2 |
| 20260901024751 | 17 | 213 | 0.0 | 4.8 | 0.00 | 0.18 | 0.00 | 80 | 1016.1 |
| 20260901024251 | 17 | 302 | 0.0 | 4.8 | 0.00 | 0.38 | 0.00 | 80 | 1016.2 |
| 20260901023750 | 17 | 345 | 0.0 | 1.6 | 0.00 | 0.38 | 0.00 | 80 | 1016.1 |
| 20260901023250 | 17 | 288 | 0.0 | 0.0 | 0.00 | 0.38 | 0.00 | 80 | 1016.0 |
| 20260901022750 | 17 | 288 | 0.0 | 0.0 | 0.00 | 0.38 | 0.00 | 80 | 1016.1 |
| 20260901022249 | 17 | 288 | 0.0 | 3.2 | 0.00 | 0.38 | 0.00 | 80 | 1016.0 |
| 20260901021749 | 17 | 18 | 0.0 | 3.2 | 0.00 | 0.38 | 0.00 | 80 | 1016.0 |
| 20260901021249 | 17 | 262 | 0.0 | 0.0 | 0.00 | 0.38 | 0.00 | 80 | 1015.9 |
| 20260901020749 | 17 | 337 | 0.0 | 1.6 | 0.00 | 0.38 | 0.00 | 80 | 1015.9 |
| 20260901020248 | 17 | 351 | 0.0 | 3.2 | 0.00 | 0.38 | 0.00 | 80 | 1015.9 |
| 20260901015748 | 17 | 1 | 0.0 | 0.0 | 0.00 | 0.38 | 0.00 | 80 | 1015.9 |
| 20260901015248 | 17 | 1 | 0.0 | 0.0 | 0.00 | 0.38 | 0.00 | 79 | 1015.8 |
| 20260901014747 | 17 | 1 | 0.0 | 0.0 | 0.00 | 0.38 | 0.00 | 79 | 1015.7 |
| 20260901014247 | 17 | 1 | 0.0 | 0.0 | 0.00 | 0.64 | 0.00 | 79 | 1015.6 |
| 20260901013747 | 17 | 1 | 0.0 | 0.0 | 0.00 | 0.64 | 0.00 | 79 | 1015.6 |
| 20260901013247 | 17 | 1 | 0.0 | 0.0 | 0.00 | 0.64 | 0.00 | 78 | 1015.6 |
| 20260901012746 | 17 | 1 | 0.0 | 0.0 | 0.00 | 0.64 | 0.00 | 78 | 1015.5 |
| 20260901012246 | 17 | 1 | 0.0 | 0.0 | 0.00 | 0.64 | 0.00 | 78 | 1015.5 |
| 20260901011746 | 17 | 1 | 0.0 | 0.0 | 0.00 | 0.64 | 0.00 | 78 | 1015.5 |
| 20260901011245 | 17 | 1 | 0.0 | 0.0 | 0.00 | 0.64 | 0.00 | 78 | 1015.5 |
| 20260901010745 | 17 | 1 | 0.0 | 0.0 | 0.00 | 0.64 | 0.00 | 78 | 1015.6 |
| 20260901010245 | 17 | 1 | 0.0 | 0.0 | 0.00 | 0.64 | 0.00 | 78 | 1015.6 |
| 20260901005745 | 17 | 1 | 0.0 | 0.0 | 0.00 | 0.64 | 0.00 | 78 | 1015.6 |
| 20260901005244 | 17 | 1 | 0.0 | 0.0 | 0.00 | 0.64 | 0.00 | 78 | 1015.6 |
| 20260901004744 | 17 | 1 | 0.0 | 0.0 | 0.00 | 0.64 | 0.00 | 77 | 1015.5 |
| 20260901004244 | 17 | 1 | 0.0 | 0.0 | 0.00 | 0.86 | 0.00 | 77 | 1015.5 |
| 20260901003743 | 17 | 1 | 0.0 | 0.0 | 0.00 | 0.86 | 0.00 | 77 | 1015.5 |
| 20260901003243 | 17 | 1 | 0.0 | 0.0 | 0.00 | 0.86 | 0.00 | 78 | 1015.4 |
| 20260901002743 | 17 | 1 | 0.0 | 0.0 | 0.00 | 0.86 | 0.00 | 78 | 1015.3 |
| 20260901002243 | 18 | 1 | 0.0 | 0.0 | 0.00 | 0.86 | 0.00 | 78 | 1015.4 |
| 20260901001742 | 18 | 1 | 0.0 | 0.0 | 0.00 | 0.86 | 0.00 | 78 | 1015.4 |
| 20260901001242 | 18 | 1 | 0.0 | 4.8 | 0.00 | 0.86 | 0.00 | 77 | 1015.4 |
| 20260901000742 | 18 | 68 | 0.0 | 0.0 | 0.00 | 0.86 | 0.00 | 77 | 1015.3 |
| 20260901000242 | 18 | 68 | 0.0 | 0.0 | 0.00 | 0.86 | 0.00 | 77 | 1015.3 |
| 20260831235741 | 18 | 68 | 0.0 | 0.0 | 0.00 | 0.86 | 0.00 | 77 | 1015.4 |
| 20260831235241 | 18 | 68 | 0.0 | 0.0 | 0.00 | 0.86 | 0.00 | 76 | 1015.4 |
| 20260831234741 | 18 | 111 | 0.0 | 0.0 | 0.00 | 0.86 | 0.00 | 76 | 1015.3 |
| 20260831234240 | 18 | 111 | 0.0 | 0.0 | 0.00 | 0.99 | 0.00 | 76 | 1015.3 |
| 20260831233740 | 18 | 111 | 0.0 | 1.6 | 0.00 | 0.99 | 0.00 | 75 | 1015.3 |
| 20260831233240 | 18 | 77 | 0.0 | 0.0 | 0.00 | 0.99 | 0.00 | 75 | 1015.3 |
| 20260831232740 | 18 | 77 | 0.0 | 0.0 | 0.00 | 0.99 | 0.00 | 75 | 1015.3 |
| 20260831232239 | 18 | 77 | 0.0 | 0.0 | 0.00 | 0.99 | 0.00 | 75 | 1015.3 |
| 20260831231739 | 18 | 77 | 0.0 | 3.2 | 0.00 | 0.99 | 0.00 | 75 | 1015.3 |
| 20260831231239 | 18 | 52 | 0.0 | 3.2 | 0.00 | 0.99 | 0.00 | 75 | 1015.3 |
| 20260831230738 | 18 | 91 | 0.0 | 0.0 | 0.00 | 0.99 | 0.00 | 75 | 1015.3 |
| 20260831230238 | 18 | 91 | 0.0 | 0.0 | 0.00 | 0.99 | 0.00 | 74 | 1015.3 |
| 20260831225738 | 18 | 91 | 0.0 | 0.0 | 0.00 | 0.99 | 0.00 | 74 | 1015.3 |
| 20260831225238 | 18 | 91 | 0.0 | 0.0 | 0.00 | 0.99 | 0.00 | 74 | 1015.3 |
| 20260831224737 | 19 | 71 | 0.0 | 6.4 | 0.00 | 0.99 | 0.00 | 74 | 1015.3 |
| 20260831224237 | 19 | 140 | 0.0 | 3.2 | 0.00 | 0.99 | 0.00 | 73 | 1015.3 |
| 20260831223737 | 19 | 326 | 0.0 | 3.2 | 0.00 | 0.99 | 0.00 | 73 | 1015.3 |
| 20260831223236 | 19 | 340 | 0.0 | 1.6 | 0.00 | 0.99 | 0.00 | 73 | 1015.2 |
| 20260831222736 | 19 | 35 | 0.0 | 0.0 | 0.00 | 0.99 | 0.00 | 73 | 1015.1 |
| 20260831222236 | 19 | 35 | 0.0 | 0.0 | 0.00 | 0.99 | 0.00 | 73 | 1015.0 |
| 20260831221736 | 19 | 35 | 0.0 | 0.0 | 0.00 | 0.99 | 0.00 | 72 | 1015.0 |
| 20260831221235 | 19 | 35 | 0.0 | 0.0 | 0.00 | 0.99 | 0.00 | 72 | 1015.0 |
| 20260831220735 | 19 | 46 | 0.0 | 0.0 | 0.00 | 0.99 | 0.00 | 72 | 1015.0 |
| 20260831220235 | 19 | 46 | 0.0 | 3.2 | 0.00 | 0.99 | 0.00 | 72 | 1015.0 |
| 20260831215734 | 19 | 21 | 0.0 | 3.2 | 0.00 | 0.99 | 0.00 | 72 | 1015.0 |
| 20260831215234 | 19 | 105 | 0.0 | 4.8 | 0.00 | 0.99 | 0.00 | 72 | 1015.0 |
| 20260831214734 | 19 | 37 | 0.0 | 0.0 | 0.00 | 0.99 | 0.00 | 72 | 1014.9 |
| 20260831214234 | 19 | 37 | 0.0 | 3.2 | 0.00 | 0.99 | 0.00 | 72 | 1015.0 |
| 20260831213733 | 19 | 77 | 0.0 | 6.4 | 0.00 | 0.99 | 0.00 | 71 | 1014.9 |
| 20260831213237 | 20 | 92 | 3.2 | 3.2 | 0.00 | 0.99 | 0.00 | 71 | 1014.8 |
| 20260831212733 | 20 | 14 | 0.0 | 0.0 | 0.00 | 0.99 | 0.99 | 71 | 1014.7 |
| 20260831212232 | 19 | 14 | 0.0 | 3.2 | 0.00 | 0.99 | 0.99 | 71 | 1014.8 |
| 20260831211732 | 20 | 355 | 0.0 | 6.4 | 0.00 | 0.99 | 0.99 | 71 | 1014.7 |
| 20260831211232 | 20 | 88 | 1.6 | 6.4 | 0.00 | 0.99 | 0.99 | 71 | 1014.6 |
| 20260831210732 | 20 | 21 | 0.0 | 4.8 | 0.00 | 0.99 | 0.99 | 71 | 1014.5 |
| 20260831210231 | 20 | 104 | 4.8 | 4.8 | 0.00 | 0.99 | 0.99 | 72 | 1014.5 |
| 20260831205731 | 20 | 333 | 0.0 | 6.4 | 0.00 | 0.99 | 0.99 | 71 | 1014.5 |
| 20260831205231 | 20 | 77 | 0.0 | 4.8 | 0.00 | 0.99 | 0.99 | 71 | 1014.4 |
| 20260831204730 | 20 | 75 | 0.0 | 1.6 | 0.00 | 0.99 | 0.99 | 72 | 1014.4 |
| 20260831204230 | 20 | 81 | 1.6 | 3.2 | 0.00 | 0.99 | 0.99 | 71 | 1014.3 |
| 20260831203730 | 20 | 30 | 0.0 | 1.6 | 0.00 | 0.99 | 0.99 | 71 | 1014.2 |
| 20260831203230 | 20 | 30 | 0.0 | 4.8 | 0.00 | 0.99 | 0.99 | 71 | 1014.3 |
| 20260831202729 | 20 | 57 | 0.0 | 3.2 | 0.00 | 0.99 | 0.99 | 71 | 1014.2 |
| 20260831202229 | 20 | 46 | 0.0 | 6.4 | 0.00 | 0.99 | 0.99 | 71 | 1014.1 |
| 20260831201729 | 20 | 47 | 0.0 | 6.4 | 0.00 | 0.99 | 0.99 | 71 | 1014.0 |
| 20260831201228 | 20 | 75 | 0.0 | 1.6 | 0.00 | 0.99 | 0.99 | 71 | 1013.9 |
| 20260831200728 | 20 | 344 | 0.0 | 1.6 | 0.00 | 0.99 | 0.99 | 71 | 1013.8 |
| 20260831200228 | 20 | 351 | 0.0 | 3.2 | 0.00 | 0.99 | 0.99 | 71 | 1013.9 |
| 20260831195728 | 20 | 348 | 0.0 | 0.0 | 0.00 | 0.99 | 0.99 | 71 | 1013.8 |
| 20260831195227 | 20 | 348 | 0.0 | 0.0 | 0.00 | 0.99 | 0.99 | 71 | 1013.7 |
| 20260831194727 | 20 | 348 | 0.0 | 1.6 | 0.00 | 0.99 | 0.99 | 71 | 1013.8 |
| 20260831194227 | 20 | 4 | 0.0 | 0.0 | 0.00 | 0.99 | 0.99 | 71 | 1013.8 |
| 20260831193726 | 20 | 4 | 0.0 | 4.8 | 0.00 | 0.99 | 0.99 | 71 | 1013.8 |
| 20260831193226 | 20 | 334 | 4.8 | 4.8 | 0.00 | 0.99 | 0.99 | 71 | 1013.7 |
| 20260831192726 | 20 | 45 | 0.0 | 6.4 | 0.00 | 0.99 | 0.99 | 71 | 1013.6 |
| 20260831192226 | 20 | 85 | 0.0 | 0.0 | 0.00 | 0.99 | 0.99 | 71 | 1013.6 |
| 20260831191725 | 20 | 85 | 0.0 | 0.0 | 0.00 | 0.99 | 0.99 | 71 | 1013.5 |
| 20260831191225 | 20 | 85 | 0.0 | 0.0 | 0.00 | 0.99 | 0.99 | 71 | 1013.4 |
| 20260831190725 | 20 | 85 | 0.0 | 0.0 | 0.00 | 0.99 | 0.99 | 71 | 1013.4 |
| 20260831190224 | 20 | 85 | 0.0 | 0.0 | 0.00 | 0.99 | 0.99 | 70 | 1013.3 |
| 20260831185724 | 20 | 85 | 0.0 | 0.0 | 0.00 | 0.99 | 0.99 | 70 | 1013.3 |
| 20260831185224 | 20 | 85 | 0.0 | 0.0 | 0.00 | 0.99 | 0.99 | 71 | 1013.1 |
| 20260831184724 | 20 | 85 | 0.0 | 0.0 | 0.00 | 0.99 | 0.99 | 70 | 1013.1 |
| 20260831184223 | 20 | 85 | 0.0 | 3.2 | 0.00 | 0.99 | 0.99 | 70 | 1013.0 |
| 20260831183723 | 20 | 39 | 0.0 | 4.8 | 0.00 | 0.99 | 0.99 | 69 | 1013.0 |
| 20260831183223 | 21 | 81 | 0.0 | 4.8 | 0.00 | 0.99 | 0.99 | 68 | 1012.8 |
| 20260831182723 | 21 | 85 | 0.0 | 4.8 | 0.00 | 0.99 | 0.99 | 68 | 1012.9 |
| 20260831182222 | 21 | 36 | 0.0 | 6.4 | 0.00 | 0.99 | 0.99 | 67 | 1012.7 |
| 20260831181722 | 21 | 87 | 6.4 | 6.4 | 0.00 | 0.99 | 0.99 | 67 | 1012.5 |
| 20260831181222 | 21 | 122 | 3.2 | 11.3 | 0.00 | 0.99 | 0.99 | 66 | 1012.5 |
| 20260831180721 | 21 | 57 | 3.2 | 11.3 | 0.00 | 0.99 | 0.99 | 65 | 1012.6 |
| 20260831180221 | 21 | 91 | 4.8 | 14.5 | 0.00 | 0.99 | 0.99 | 64 | 1012.4 |
| 20260831175721 | 21 | 135 | 6.4 | 11.3 | 0.00 | 0.99 | 0.99 | 63 | 1012.3 |
| 20260831175221 | 22 | 101 | 4.8 | 6.4 | 0.00 | 0.99 | 0.99 | 63 | 1012.1 |
| 20260831174720 | 22 | 43 | 1.6 | 9.7 | 0.00 | 0.99 | 0.99 | 62 | 1012.1 |
| 20260831174220 | 22 | 77 | 0.0 | 1.6 | 0.00 | 0.99 | 0.99 | 62 | 1011.9 |
| 20260831173720 | 22 | 45 | 0.0 | 8.0 | 0.00 | 0.99 | 0.99 | 61 | 1011.8 |
| 20260831173219 | 22 | 12 | 1.6 | 8.0 | 0.00 | 0.99 | 0.99 | 61 | 1011.8 |
| 20260831172719 | 22 | 296 | 0.0 | 11.3 | 0.00 | 0.99 | 0.99 | 61 | 1011.4 |
| 20260831172219 | 22 | 313 | 0.0 | 9.7 | 0.00 | 0.99 | 0.99 | 61 | 1011.4 |
| 20260831171719 | 22 | 324 | 6.4 | 8.0 | 0.00 | 0.99 | 0.99 | 61 | 1011.5 |
| 20260831171218 | 22 | 4 | 1.6 | 19.3 | 0.00 | 0.99 | 0.99 | 60 | 1011.6 |
| 20260831170718 | 22 | 157 | 1.6 | 9.7 | 0.00 | 0.99 | 0.99 | 60 | 1011.5 |
| 20260831170218 | 22 | 12 | 0.0 | 11.3 | 0.00 | 0.99 | 0.99 | 59 | 1011.4 |
| 20260831165717 | 22 | 15 | 8.0 | 14.5 | 0.00 | 0.99 | 0.99 | 59 | 1011.6 |
| 20260831165217 | 23 | 132 | 3.2 | 11.3 | 0.00 | 0.99 | 0.99 | 58 | 1011.5 |
| 20260831164717 | 23 | 68 | 6.4 | 16.1 | 0.00 | 0.99 | 0.99 | 58 | 1011.6 |
| 20260831164217 | 23 | 32 | 3.2 | 12.9 | 0.00 | 0.99 | 0.99 | 57 | 1011.5 |
| 20260831163716 | 23 | 104 | 3.2 | 16.1 | 0.00 | 0.99 | 0.99 | 58 | 1011.4 |
| 20260831163216 | 23 | 21 | 1.6 | 11.3 | 0.00 | 0.99 | 0.99 | 59 | 1011.2 |
| 20260831162716 | 23 | 36 | 1.6 | 16.1 | 0.00 | 0.99 | 0.99 | 59 | 1011.2 |
| 20260831162215 | 23 | 108 | 0.0 | 12.9 | 0.00 | 0.99 | 0.99 | 59 | 1010.9 |
| 20260831161715 | 24 | 322 | 3.2 | 16.1 | 0.00 | 0.99 | 0.99 | 58 | 1010.9 |
| 20260831161215 | 23 | 99 | 1.6 | 16.1 | 0.00 | 0.99 | 0.99 | 58 | 1010.8 |
| 20260831160715 | 23 | 119 | 4.8 | 16.1 | 0.00 | 0.99 | 0.99 | 59 | 1010.8 |
| 20260831160214 | 23 | 81 | 9.7 | 11.3 | 0.00 | 0.99 | 0.99 | 59 | 1010.7 |
| 20260831155714 | 23 | 118 | 9.7 | 14.5 | 0.00 | 0.99 | 0.99 | 60 | 1010.7 |
| 20260831155214 | 22 | 28 | 0.0 | 16.1 | 0.00 | 0.99 | 0.99 | 62 | 1010.7 |
| 20260831154713 | 22 | 63 | 8.0 | 16.1 | 0.00 | 0.99 | 0.99 | 61 | 1010.9 |
| 20260831154213 | 22 | 282 | 8.0 | 12.9 | 0.03 | 0.99 | 0.99 | 61 | 1010.7 |
| 20260831153713 | 22 | 307 | 4.8 | 12.9 | 0.03 | 0.99 | 0.99 | 63 | 1010.7 |
| 20260831153213 | 22 | 98 | 1.6 | 14.5 | 0.03 | 0.99 | 0.99 | 65 | 1010.7 |
| 20260831152712 | 21 | 97 | 9.7 | 17.7 | 0.05 | 0.99 | 0.99 | 68 | 1010.9 |
| 20260831152212 | 21 | 32 | 4.8 | 17.7 | 0.05 | 0.99 | 0.99 | 70 | 1010.9 |
| 20260831151712 | 21 | 157 | 0.0 | 9.7 | 0.08 | 0.99 | 0.99 | 72 | 1011.0 |
| 20260831151211 | 21 | 78 | 0.0 | 6.4 | 0.08 | 0.99 | 0.99 | 72 | 1010.8 |
| 20260831150711 | 21 | 4 | 0.0 | 9.7 | 0.08 | 0.99 | 0.99 | 72 | 1010.8 |
| 20260831150211 | 21 | 30 | 1.6 | 11.3 | 0.10 | 0.99 | 0.99 | 72 | 1010.9 |
| 20260831145711 | 21 | 90 | 4.8 | 11.3 | 0.10 | 0.99 | 0.99 | 71 | 1010.8 |
| 20260831145210 | 21 | 119 | 3.2 | 9.7 | 0.13 | 0.99 | 0.99 | 71 | 1010.8 |
| 20260831144710 | 22 | 35 | 0.0 | 9.7 | 0.13 | 0.99 | 0.99 | 70 | 1010.8 |
| 20260831144210 | 22 | 122 | 8.0 | 11.3 | 0.13 | 0.97 | 0.97 | 69 | 1010.9 |
| 20260831143709 | 22 | 52 | 0.0 | 8.0 | 0.13 | 0.97 | 0.97 | 69 | 1010.7 |
| 20260831143209 | 22 | 351 | 4.8 | 11.3 | 0.13 | 0.97 | 0.97 | 67 | 1010.6 |
| 20260831142709 | 22 | 75 | 3.2 | 14.5 | 0.10 | 0.94 | 0.94 | 66 | 1010.6 |
| 20260831142209 | 22 | 299 | 3.2 | 11.3 | 0.10 | 0.94 | 0.94 | 68 | 1010.7 |
| 20260831141708 | 22 | 337 | 6.4 | 17.7 | 0.08 | 0.91 | 0.91 | 69 | 1010.8 |
| 20260831141208 | 22 | 296 | 4.8 | 12.9 | 0.08 | 0.91 | 0.91 | 68 | 1010.7 |
| 20260831140708 | 22 | 322 | 0.0 | 9.7 | 0.08 | 0.91 | 0.91 | 71 | 1010.9 |
| 20260831140207 | 21 | 105 | 0.0 | 8.0 | 0.05 | 0.89 | 0.89 | 74 | 1011.0 |